Location: *
(48.8489°N, 2.3218°E)
Time: 15:21:28
(UTC+00:00)

Geosat - Pass Details

Date: 23 August 2019
Orbit: 763 x 766 km, 108.0° (Epoch: 18 September)

Event Time Altitude Azimuth Distance (km) Brightness Sun altitude
Exits shadow 20:57:05 33° 152° (SSE) 1,271 4.6 -18.4°
Maximum altitude 20:59:25 87° 238° (WSW) 773 3.9 -18.7°
Drops below altitude 10° 21:04:29 10° 330° (NNW) 2,312 7.6 -19.3°
Sets 21:06:46 0° 331° (NNW) 3,243 8.7 -19.5°
